SCP
1 0 0 0 0 0 0 0 0 0 0 0 0 0 0 0 0 0 0 0 0 0 0 0 0 0 0 0 0 0 0 0 0 0 0 0 0 0 0 0 0 0 0 1 1 1 1 1 1
1 0 0 0 0 0 0 0 0 0 0 0 0 0 0 0 0 0 0 0 0 0 0 0 0 0 0 0 0 0 0 0 0 0 0 0 0 0 0 0 0 0 0 0 1 1 1 0 0
0 0 0 0 0 0 0 0 0 0 0 0 0 0 0 0 0 0 0 0 0 0 0 0 0 0 0 0 0 0 0 0 0 0 0 0 0 1 1 0 0 0 0 0 0 0 0 0 0
0 0 0 0 0 0 0 0 0 0 0 0 0 0 0 0 0 0 0 0 0 0 0 0 0 0 0 0 0 0 0 0 0 0 0 1 1 1 1 1 0 0 0 1 0 0 0 0 0
0 0 0 0 0 1 1 1 0 0 0 0 0 0 0 0 0 0 0 0 0 0 0 0 0 0 0 0 0 0 0 0 0 0 0 0 1 1 1 1 1 1 1 1 1 1 1 1 1
0 0 0 0 1 1 1 1 1 0 0 0 0 0 1 1 1 0 0 0 0 0 0 0 0 0 1 1 1 1 1 0 0 0 0 0 0 1 1 0 1 1 1 1 1 1 1 1 1
0 0 0 0 1 1 1 0 0 0 0 1 1 1 1 1 1 1 0 0 0 0 0 0 0 0 0 1 1 1 1 1 0 0 0 0 0 0 0 0 0 1 1 1 1 1 1 1 1
0 0 0 0 1 1 0 0 0 0 0 1 1 1 1 1 1 1 1 1 0 0 0 0 0 0 0 1 1 1 1 1 1 1 0 0 0 0 0 0 0 0 0 0 0 1 1 1 1
0 0 0 1 1 1 0 0 0 0 0 1 1 1 1 1 1 1 1 1 1 1 0 0 0 0 0 0 1 1 1 1 1 1 0 0 0 0 0 0 0 0 0 0 0 0 0 0 0
0 0 0 1 1 0 0 0 0 0 0 0 0 0 1 1 1 1 1 1 1 1 1 0 0 0 0 0 1 2 2 2 1 1 1 0 0 0 0 0 0 0 0 0 0 0 0 0 0
0 0 0 0 0 0 0 0 0 0 0 0 0 0 0 0 1 1 1 1 1 1 1 0 0 0 0 0 0 1 2 3 2 1 1 0 0 0 0 0 0 0 0 0 0 0 0 0 0
0 0 0 0 0 0 0 0 0 0 0 0 0 0 0 0 0 0 0 0 0 0 1 0 0 0 0 0 0 1 2 3 3 3 2 1 1 0 0 0 0 0 0 0 0 0 0 0 0
0 0 0 0 0 0 0 0 0 0 0 0 0 0 0 0 0 0 0 0 0 0 0 0 0 0 0 0 0 0 1 3 4 4 3 2 1 0 0 0 0 0 0 0 0 0 0 0 0
0 0 0 0 0 0 0 0 0 0 0 0 0 0 0 0 0 0 0 0 0 0 0 0 0 0 0 0 0 0 1 2 3 3 2 2 1 0 0 0 0 0 0 0 0 0 1 1 1
0 0 0 0 0 0 0 0 0 0 0 0 0 0 0 0 0 0 0 0 0 0 0 0 0 0 0 0 0 0 1 1 1 1 1 1 1 0 0 0 0 0 0 0 0 0 0 0 0
0 0 0 0 0 0 0 0 0 0 0 0 0 0 0 0 0 0 0 0 0 0 0 0 0 0 0 0 0 1 1 1 1 1 1 1 1 0 0 0 0 0 0 0 0 0 0 0 0
0 0 0 0 0 0 0 0 0 0 0 0 0 0 0 0 0 0 0 0 0 0 0 0 0 0 0 0 1 1 1 2 2 2 2 1 1 1 0 0 0 0 0 0 0 0 0 0 0
0 0 0 0 0 0 0 0 0 0 0 0 0 0 0 0 0 0 0 0 0 0 0 0 0 0 0 0 1 1 2 2 2 2 2 1 1 1 1 0 0 0 0 0 0 0 0 0 0
0 0 0 0 0 0 0 0 0 0 0 0 0 0 0 0 0 0 0 0 0 0 0 0 0 0 0 0 1 1 1 2 1 1 1 1 1 1 1 1 1 0 0 0 0 0 0 0 0
0 0 0 0 0 0 0 0 0 0 0 0 0 0 0 0 0 0 0 0 0 0 0 0 0 0 0 0 1 1 1 1 1 1 1 1 1 1 1 1 1 0 0 0 0 0 0 0 0
0 0 0 0 0 0 0 0 0 0 0 0 0 0 0 0 0 0 0 0 0 0 0 0 0 0 0 1 1 1 0 1 1 1 1 1 1 1 1 1 1 1 0 0 0 0 0 0 0
0 0 0 0 0 0 0 0 0 0 0 0 0 0 0 0 0 0 0 0 0 0 0 0 0 0 0 1 1 1 0 1 1 1 1 1 1 1 1 1 1 0 0 0 1 1 0 0 0
0 0 0 0 0 0 0 0 0 0 0 0 0 0 0 0 0 0 0 0 0 0 0 0 0 0 1 1 1 1 1 1 1 1 1 1 2 1 1 1 1 1 0 0 0 1 0 0 0
0 0 0 0 0 0 0 0 0 0 0 0 0 0 0 0 0 0 0 0 0 0 0 1 1 1 1 1 1 1 1 1 1 1 1 2 2 1 1 1 1 1 0 0 0 0 0 0 0
0 0 0 0 0 0 0 0 0 0 0 0 0 0 0 0 0 0 0 0 0 0 0 1 1 1 1 1 1 1 1 1 1 1 2 2 1 1 1 1 0 0 0 0 0 0 0 0 0
0 0 0 0 0 0 0 0 0 0 0 0 0 0 0 0 0 1 1 1 0 0 0 1 1 1 2 1 1 1 1 1 1 1 1 1 1 1 1 1 0 0 0 0 0 0 0 0 0
0 0 0 0 0 0 0 0 0 0 0 0 0 0 0 0 1 1 1 1 0 0 0 0 1 1 2 2 1 1 1 1 1 1 1 1 1 0 1 1 0 0 0 0 0 0 0 0 0
0 0 0 0 0 0 0 0 0 0 0 0 0 0 0 0 1 1 1 1 0 0 0 0 1 1 1 2 2 2 2 1 2 2 1 1 0 0 0 0 0 0 0 0 0 0 0 0 0
0 0 0 0 0 0 0 0 0 0 0 0 0 0 0 0 0 1 1 1 1 0 0 1 1 1 1 2 2 2 2 2 2 2 1 1 0 0 0 0 0 0 0 0 0 0 0 0 0
0 0 0 0 0 0 0 0 0 0 0 0 0 0 0 0 0 0 1 1 1 1 1 1 1 1 1 2 2 2 2 2 2 2 1 1 0 0 0 0 0 0 0 1 0 0 0 0 0
Wind_Speed
3 2 2 3 3 3 5 5 4 5 5 5 5 5 6 7 5 6 4 4 4 4 5 5 5 5 6 7 7 8 8 9 8 8 9 9 8 9 9 8 8 8 8 9 8 8 8 8 8
1 1 3 2 2 4 6 5 6 6 6 6 5 5 6 7 6 6 5 4 4 5 4 5 6 6 6 7 7 8 8 8 8 8 9 9 8 8 9 9 9 9 8 8 8 8 8 8 8
2 2 2 1 2 3 6 6 7 7 5 3 4 4 5 6 5 5 5 6 5 5 5 7 5 6 6 7 7 7 8 8 9 8 8 8 9 9 9 10 9 9 9 8 8 8 8 8 8
2 2 2 2 6 6 5 7 7 7 5 4 4 6 6 5 4 6 7 6 6 5 5 7 5 6 6 7 7 7 8 8 8 8 8 8 8 9 9 9 9 9 9 8 7 7 7 7 7
2 2 3 5 6 5 5 5 5 4 4 4 4 7 7 5 6 8 7 6 6 6 6 7 7 7 7 7 7 7 8 8 8 8 8 9 9 9 9 9 9 8 8 8 7 7 7 7 7
2 2 3 5 7 5 5 4 4 5 6 5 5 7 7 6 7 7 7 6 6 6 6 7 8 7 7 7 8 8 8 8 8 8 9 9 9 8 9 9 9 9 9 8 8 8 8 8 8
1 1 3 5 6 5 4 3 3 4 5 4 2 5 7 6 6 7 7 6 6 5 5 5 6 7 7 8 8 8 8 9 8 9 9 9 8 8 9 8 9 9 9 9 9 9 8 8 8
1 2 4 4 5 5 4 4 3 3 5 4 1 3 6 7 7 7 7 6 6 5 5 5 5 5 5 7 8 8 8 8 9 9 9 8 8 8 7 7 8 9 9 9 9 10 10 9 9
2 2 3 3 4 5 5 5 4 2 5 4 3 4 6 10 9 8 7 6 5 5 4 4 4 5 5 5 7 6 7 7 6 7 7 4 4 6 6 10 8 8 9 9 9 9 8 6 8
2 1 3 2 3 5 5 4 4 4 5 4 5 6 8 10 9 8 6 6 6 5 4 4 4 4 4 4 4 3 4 4 4 4 4 3 4 5 5 8 8 8 7 7 7 5 3 1 3
1 2 3 3 3 4 5 4 2 3 2 2 4 7 9 9 8 7 6 5 5 5 4 4 4 4 4 3 3 2 2 2 3 3 4 3 3 3 3 3 4 4 3 3 4 2 3 3 3
3 3 3 3 3 4 4 4 3 0 2 2 4 8 9 9 7 6 5 5 5 5 4 4 4 4 3 3 3 2 2 2 2 2 3 2 2 2 3 2 3 2 2 3 2 2 3 3 3
4 4 3 3 4 4 4 3 2 1 2 4 6 8 8 7 7 6 5 5 5 5 5 4 3 3 3 3 2 2 2 2 3 2 2 3 2 2 2 2 2 3 2 2 2 2 4 3 4
4 4 3 3 3 3 3 2 2 2 4 6 7 7 7 6 6 6 6 5 5 5 5 5 3 3 3 3 2 2 2 2 2 2 2 2 2 2 2 3 3 3 3 3 2 3 3 2 2
4 4 4 2 2 3 3 3 3 3 6 6 7 6 6 6 6 5 5 5 5 5 5 5 4 3 3 2 2 2 1 2 2 2 2 2 2 2 2 2 2 2 2 2 2 3 2 2 2
4 4 3 2 2 3 5 3 3 5 7 6 6 6 6 6 6 5 5 5 5 5 5 5 3 3 3 2 2 1 1 2 1 2 1 2 2 3 2 2 2 2 2 2 2 2 2 2 2
5 4 3 3 3 3 6 3 3 5 7 7 6 6 6 6 6 6 5 5 5 5 5 5 4 3 3 2 2 1 2 2 1 1 1 1 2 2 2 2 1 2 1 2 2 2 2 2 2
4 4 3 3 2 4 5 4 3 5 7 7 7 7 7 7 7 7 6 6 5 5 6 5 5 4 3 2 2 2 2 2 1 1 1 1 1 1 1 1 1 1 1 1 2 2 2 2 1
3 4 4 2 1 4 5 6 5 6 8 8 8 8 8 7 7 6 7 7 7 6 6 6 6 5 4 3 2 2 2 2 1 1 1 1 1 1 1 0 1 1 1 1 1 1 2 1 1
5 6 4 2 2 4 5 7 6 6 8 8 8 8 9 8 7 8 8 7 8 8 7 6 6 5 4 3 2 2 2 1 1 1 1 1 1 1 1 1 1 1 1 1 1 1 1 1 1
6 6 5 4 2 5 6 7 6 5 6 7 8 8 8 8 9 9 9 8 8 8 8 6 6 6 5 4 3 3 2 2 2 2 1 1 1 1 0 0 0 0 1 1 1 1 0 0 1
6 3 5 5 6 4 5 6 4 4 6 6 7 7 7 7 8 8 9 9 9 9 8 8 7 6 5 5 4 4 3 3 2 2 2 2 1 1 1 1 0 0 0 1 1 1 0 1 0
3 1 4 6 7 7 7 7 3 4 5 5 5 6 6 6 7 8 8 9 9 9 8 7 7 6 6 6 5 5 4 2 2 2 2 2 2 2 1 1 1 1 1 1 1 1 1 1 1
3 4 4 5 6 8 5 7 3 2 2 2 3 4 4 5 6 7 7 7 8 7 7 7 7 7 6 6 6 5 5 4 4 3 3 2 2 2 2 2 2 1 1 1 1 2 1 1 1
6 6 4 5 6 4 2 6 3 1 1 1 1 2 3 4 5 6 7 8 8 8 8 8 8 7 7 7 6 6 5 5 5 4 3 3 2 2 2 2 2 1 1 1 2 2 2 2 2
7 8 5 4 4 2 4 6 1 1 0 1 1 2 3 3 4 5 6 7 7 8 8 8 8 8 8 8 7 6 6 4 3 4 3 3 2 2 2 3 2 2 2 2 2 2 2 2 2
7 7 5 6 6 6 5 3 2 2 3 3 3 2 2 3 3 4 5 6 6 7 8 8 8 8 8 7 7 6 6 5 5 4 4 3 2 2 2 3 3 2 2 2 2 2 2 1 2
5 4 5 6 5 6 5 5 3 5 3 3 2 2 2 2 2 3 4 4 5 6 6 7 7 7 7 7 6 5 6 6 5 5 5 4 4 3 3 3 3 2 2 3 3 2 2 2 2
6 7 6 6 6 6 4 1 2 2 2 1 1 1 1 2 2 3 3 4 4 4 5 6 7 7 7 7 7 7 6 6 6 5 5 4 4 4 4 3 3 3 3 3 3 3 3 3 3
6 7 8 7 6 7 6 2 3 1 0 0 1 1 1 1 1 2 3 3 4 4 4 5 5 6 6 7 7 7 6 6 6 6 5 5 5 4 4 4 3 3 3 3 4 3 4 4 4
Wind_Direction
207 207 231 230 212 135 96 95 104 111 86 68 69 71 67 47 30 68 86 103 94 98 97 103 79 77 77 77 76 84 86 88 88 85 83 85 83 82 84 87 89 86 84 83 80 79 76 74 72
203 199 236 238 210 132 104 108 111 91 104 110 89 81 78 72 61 89 113 111 107 96 93 87 82 77 77 78 77 79 85 87 88 85 84 84 83 83 83 83 87 86 85 83 78 76 75 74 69
161 243 263 182 101 94 109 114 108 104 118 123 98 68 58 74 89 95 107 123 111 95 89 86 81 78 75 75 80 80 83 85 85 84 82 82 82 81 81 81 81 82 80 76 75 75 75 73 69
222 211 205 129 103 80 100 118 121 127 118 104 114 100 84 62 81 101 120 124 108 99 93 91 84 81 76 74 81 82 83 84 84 83 80 77 77 78 79 79 78 77 76 72 69 71 72 72 71
235 224 146 123 104 97 104 116 139 131 112 111 114 104 97 82 96 111 118 117 109 103 96 95 85 81 80 76 80 81 82 83 82 83 79 72 73 76 79 77 74 73 73 73 70 69 67 65 66
206 213 157 129 114 113 115 122 127 112 107 113 117 112 98 107 117 117 118 112 103 97 97 99 94 81 78 75 71 74 77 79 78 79 77 73 71 72 75 75 72 69 70 71 69 69 68 64 63
230 154 127 125 127 124 115 122 121 115 112 99 110 113 114 126 123 127 120 111 101 98 96 96 107 105 93 79 72 72 74 73 73 74 72 72 72 72 71 72 71 70 71 69 67 66 69 64 64
298 166 138 138 141 120 117 127 103 99 98 90 109 110 121 139 139 134 124 117 109 101 97 95 93 95 103 103 83 75 72 71 72 71 69 69 73 74 72 77 73 72 70 68 67 64 63 60 61
242 192 144 141 145 125 135 134 112 94 111 106 76 60 104 135 146 142 134 127 118 108 103 101 95 88 86 91 97 97 91 79 85 86 82 87 86 82 84 65 67 73 71 69 67 64 65 69 78
227 157 108 103 121 129 137 129 132 154 131 124 117 106 124 144 153 149 145 141 135 129 119 110 107 103 98 93 101 96 93 92 81 78 87 82 76 70 68 82 72 74 76 82 72 69 87 64 77
91 100 112 118 121 137 141 126 137 180 137 152 155 144 148 156 157 156 151 145 139 133 123 120 118 107 105 107 98 88 85 86 86 82 87 84 82 94 89 94 104 94 88 79 90 112 63 57 55
116 99 118 122 133 153 152 147 140 103 41 85 136 144 154 163 162 161 155 148 147 141 134 124 121 116 113 107 100 102 100 94 89 82 80 82 75 66 69 69 68 68 68 57 50 46 62 55 57
127 119 115 124 130 140 135 141 140 112 104 111 127 144 157 165 164 157 157 156 157 149 145 133 130 121 114 104 97 103 95 92 92 71 66 81 78 70 74 70 63 59 60 66 51 50 57 47 44
123 132 130 137 151 161 154 158 180 145 142 139 144 152 160 166 166 160 163 165 165 160 154 138 141 131 129 126 126 109 106 103 89 91 79 86 89 84 78 75 66 57 48 44 43 51 55 53 49
151 156 149 149 173 172 193 186 188 152 161 159 160 160 162 170 172 172 172 170 167 162 156 147 149 143 138 131 111 105 110 107 91 86 82 87 86 90 86 74 77 67 55 47 39 46 42 51 55
190 202 187 142 202 190 228 211 145 158 176 178 175 171 174 178 184 180 177 174 167 166 160 151 155 157 143 136 130 123 116 107 104 105 86 84 94 88 79 70 67 66 57 48 48 33 37 45 43
203 210 195 164 188 208 230 238 161 177 193 193 190 187 187 185 190 187 184 182 175 174 169 164 166 163 152 150 143 127 118 111 108 111 100 92 92 94 96 71 51 61 55 45 47 44 23 38 40
203 215 212 207 165 215 228 241 208 193 209 210 205 201 197 198 196 190 188 188 183 179 176 171 168 170 158 164 152 132 121 112 103 106 110 90 91 98 104 115 97 73 69 53 54 71 51 33 23
239 238 241 245 198 232 237 248 244 212 216 221 218 214 210 209 197 188 185 185 185 183 181 174 177 170 167 165 167 156 146 127 112 114 104 115 122 116 105 127 103 72 68 47 46 67 83 65 7
227 234 241 230 193 250 258 263 253 226 223 227 227 220 214 209 197 187 186 182 188 186 186 181 179 179 174 171 167 159 142 136 114 106 96 93 115 132 150 174 150 135 111 80 53 69 30 70 354
228 245 254 261 242 229 261 255 229 209 215 222 228 227 219 210 204 194 189 187 189 190 188 185 182 176 172 171 161 146 143 158 156 147 127 117 117 115 158 171 182 162 181 112 69 86 56 12 44
245 257 256 252 253 249 247 274 231 204 207 213 217 216 216 209 206 198 192 191 192 192 188 188 184 178 171 173 177 179 185 182 176 164 163 167 158 155 208 213 228 204 169 149 170 108 89 294 359
264 259 244 252 263 264 239 258 242 190 218 210 204 206 210 205 202 199 195 196 194 187 187 189 185 181 178 183 184 198 198 186 169 172 171 172 162 182 198 210 213 227 237 243 234 226 248 271 295
182 188 199 227 249 251 241 247 253 198 230 195 175 185 189 189 191 194 192 191 188 182 183 187 190 183 184 188 190 196 196 187 180 184 177 181 173 187 198 215 213 207 227 250 252 247 241 263 274
209 230 231 220 221 237 180 246 258 13 338 249 200 167 164 166 174 180 184 186 183 184 186 188 189 187 186 192 196 198 200 200 197 191 189 189 187 193 201 208 226 219 231 244 246 247 248 249 257
219 237 256 270 265 255 209 239 205 77 355 187 164 130 132 145 157 171 182 185 183 186 189 191 193 192 190 195 198 199 196 203 203 204 203 200 202 208 206 207 215 218 224 238 232 247 244 247 250
216 227 260 279 279 271 232 219 210 189 182 155 149 138 138 142 154 167 177 183 183 185 188 193 195 196 194 198 199 201 200 200 204 208 208 204 210 214 213 214 215 220 230 238 235 247 247 252 261
260 221 212 236 256 255 232 233 220 177 164 148 149 143 132 133 147 163 168 173 179 186 189 192 197 199 196 198 199 200 204 202 204 205 205 206 211 211 213 217 219 222 224 228 235 249 256 243 239
198 207 226 235 255 273 262 209 85 148 130 136 82 59 86 132 146 153 162 165 168 177 185 191 199 201 199 201 202 200 203 204 203 208 211 213 215 212 213 219 223 223 227 223 220 236 240 244 238
239 232 228 238 238 249 272 274 106 144 51 352 2 24 39 93 134 143 150 158 165 176 180 189 199 201 201 203 203 204 202 202 207 211 215 216 215 218 220 221 227 228 234 232 228 232 237 242 248